Time,TemperatureF,DewpointF,PressureIn,WindDirection,WindDirectionDegrees,WindSpeedMPH,WindSpeedGustMPH,Humidity,HourlyPrecipIn,Conditions,Clouds,dailyrainin,SoftwareType,DateUTC
2013-01-19 00:00:00,41.0,30.1,30.17,West,270,0.0,0.0,65,0.00,,,0.00,LWC V2.11 B50,2013-01-19 08:00:00,
2013-01-19 00:05:00,48.5,43.6,29.80,ESE,114,0.0,0.7,85,0.00,,,0.00,WeatherCatV1.15B25,2013-01-19 08:05:00,
2013-01-19 00:10:00,40.3,29.1,30.17,NNE,22,0.0,1.0,64,0.00,,,0.00,LWC V2.11 B50,2013-01-19 08:10:00,
2013-01-19 00:15:00,48.5,43.6,29.80,ESE,114,0.0,0.7,85,0.00,,,0.00,WeatherCatV1.15B25,2013-01-19 08:15:00,
2013-01-19 00:20:00,40.3,29.1,30.17,NNE,22,0.0,1.0,64,0.00,,,0.00,LWC V2.11 B50,2013-01-19 08:20:00,
2013-01-19 00:25:00,48.5,43.6,29.80,ESE,114,0.0,0.7,85,0.00,,,0.00,WeatherCatV1.15B25,2013-01-19 08:25:00,
2013-01-19 00:30:00,40.3,29.1,30.17,NNE,22,0.0,1.0,64,0.00,,,0.00,LWC V2.11 B50,2013-01-19 08:30:00,
2013-01-19 00:35:00,48.5,43.6,29.80,ESE,114,0.0,0.7,85,0.00,,,0.00,WeatherCatV1.15B25,2013-01-19 08:35:00,
2013-01-19 00:40:00,40.3,29.1,30.17,NNE,22,0.0,1.0,64,0.00,,,0.00,LWC V2.11 B50,2013-01-19 08:40:00,
2013-01-19 00:45:00,48.5,43.6,29.80,ESE,114,0.0,0.7,85,0.00,,,0.00,WeatherCatV1.15B25,2013-01-19 08:45:00,
2013-01-19 00:50:00,40.3,29.1,30.17,NNE,22,0.0,1.0,64,0.00,,,0.00,LWC V2.11 B50,2013-01-19 08:50:00,
2013-01-19 00:55:00,48.5,43.6,29.80,ESE,114,0.0,0.7,85,0.00,,,0.00,WeatherCatV1.15B25,2013-01-19 08:55:00,
2013-01-19 01:00:00,39.3,27.8,30.18,NNE,22,0.0,0.0,63,0.00,,,0.00,LWC V2.11 B50,2013-01-19 09:00:00,
2013-01-19 01:05:00,48.5,43.6,29.80,ESE,114,0.0,0.7,85,0.00,,,0.00,WeatherCatV1.15B25,2013-01-19 09:05:00,
2013-01-19 01:10:00,39.3,27.8,30.18,NNE,22,0.0,0.0,63,0.00,,,0.00,LWC V2.11 B50,2013-01-19 09:10:00,
2013-01-19 01:15:00,48.5,43.6,29.80,ESE,114,0.0,0.7,85,0.00,,,0.00,WeatherCatV1.15B25,2013-01-19 09:15:00,
2013-01-19 01:20:00,39.3,27.8,30.18,NNE,22,0.0,0.0,63,0.00,,,0.00,LWC V2.11 B50,2013-01-19 09:20:00,
2013-01-19 01:25:00,48.5,43.6,29.80,ESE,114,0.0,0.7,85,0.00,,,0.00,WeatherCatV1.15B25,2013-01-19 09:25:00,
2013-01-19 01:30:00,39.3,27.8,30.18,NNE,22,0.0,0.0,63,0.00,,,0.00,LWC V2.11 B50,2013-01-19 09:30:00,
2013-01-19 01:35:00,48.5,43.6,29.80,ESE,114,0.0,0.7,85,0.00,,,0.00,WeatherCatV1.15B25,2013-01-19 09:35:00,
2013-01-19 01:40:00,39.3,27.8,30.18,NNE,22,0.0,0.0,63,0.00,,,0.00,LWC V2.11 B50,2013-01-19 09:40:00,
2013-01-19 01:45:00,48.5,43.6,29.80,ESE,114,0.0,0.7,85,0.00,,,0.00,WeatherCatV1.15B25,2013-01-19 09:45:00,
2013-01-19 01:50:00,39.3,27.8,30.18,NNE,22,0.0,0.0,63,0.00,,,0.00,LWC V2.11 B50,2013-01-19 09:50:00,
2013-01-19 01:55:00,48.5,43.6,29.80,ESE,114,0.0,0.7,85,0.00,,,0.00,WeatherCatV1.15B25,2013-01-19 09:55:00,
2013-01-19 02:00:00,39.3,27.8,30.18,NNE,22,0.0,0.0,63,0.00,,,0.00,LWC V2.11 B50,2013-01-19 10:00:00,
2013-01-19 02:05:00,48.5,43.6,29.80,ESE,114,0.0,0.7,85,0.00,,,0.00,WeatherCatV1.15B25,2013-01-19 10:05:00,
2013-01-19 02:10:00,40.0,25.2,30.20,NNE,22,0.0,0.0,55,0.00,,,0.00,LWC V2.11 B50,2013-01-19 10:10:00,
2013-01-19 02:15:00,48.5,43.6,29.80,ESE,114,0.0,0.7,85,0.00,,,0.00,WeatherCatV1.15B25,2013-01-19 10:15:00,
2013-01-19 02:20:00,40.0,25.2,30.20,NNE,22,0.0,0.0,55,0.00,,,0.00,LWC V2.11 B50,2013-01-19 10:20:00,
2013-01-19 02:25:00,48.5,43.6,29.80,ESE,114,0.0,0.7,85,0.00,,,0.00,WeatherCatV1.15B25,2013-01-19 10:25:00,
2013-01-19 02:30:00,40.0,25.2,30.20,NNE,22,0.0,0.0,55,0.00,,,0.00,LWC V2.11 B50,2013-01-19 10:30:00,
2013-01-19 02:35:00,48.5,43.6,29.80,ESE,114,0.0,0.7,85,0.00,,,0.00,WeatherCatV1.15B25,2013-01-19 10:35:00,
2013-01-19 02:40:00,40.0,25.2,30.20,NNE,22,0.0,0.0,55,0.00,,,0.00,LWC V2.11 B50,2013-01-19 10:40:00,
2013-01-19 02:45:00,48.5,43.6,29.80,ESE,114,0.0,0.7,85,0.00,,,0.00,WeatherCatV1.15B25,2013-01-19 10:45:00,
2013-01-19 02:50:00,40.0,25.2,30.20,NNE,22,0.0,0.0,55,0.00,,,0.00,LWC V2.11 B50,2013-01-19 10:50:00,
2013-01-19 02:55:00,48.5,43.6,29.80,ESE,114,0.0,0.7,85,0.00,,,0.00,WeatherCatV1.15B25,2013-01-19 10:55:00,
2013-01-19 03:00:00,40.0,25.2,30.20,NNE,22,0.0,0.0,55,0.00,,,0.00,LWC V2.11 B50,2013-01-19 11:00:00,
2013-01-19 03:05:00,48.5,43.6,29.80,ESE,114,0.0,0.7,85,0.00,,,0.00,WeatherCatV1.15B25,2013-01-19 11:05:00,
2013-01-19 03:10:00,39.9,24.2,30.20,NNE,22,0.0,0.0,53,0.00,,,0.00,LWC V2.11 B50,2013-01-19 11:10:00,
2013-01-19 03:15:00,48.5,43.6,29.80,ESE,114,0.0,0.7,85,0.00,,,0.00,WeatherCatV1.15B25,2013-01-19 11:15:00,
2013-01-19 03:20:00,39.9,24.2,30.20,NNE,22,0.0,0.0,53,0.00,,,0.00,LWC V2.11 B50,2013-01-19 11:20:00,
2013-01-19 03:25:00,48.5,43.6,29.80,ESE,114,0.0,0.7,85,0.00,,,0.00,WeatherCatV1.15B25,2013-01-19 11:25:00,
2013-01-19 03:30:00,39.9,24.2,30.20,NNE,22,0.0,0.0,53,0.00,,,0.00,LWC V2.11 B50,2013-01-19 11:30:00,
2013-01-19 03:35:00,48.5,43.6,29.80,ESE,114,0.0,0.7,85,0.00,,,0.00,WeatherCatV1.15B25,2013-01-19 11:35:00,
2013-01-19 03:40:00,39.9,24.2,30.20,NNE,22,0.0,0.0,53,0.00,,,0.00,LWC V2.11 B50,2013-01-19 11:40:00,
2013-01-19 03:45:00,48.5,43.6,29.80,ESE,114,0.0,0.7,85,0.00,,,0.00,WeatherCatV1.15B25,2013-01-19 11:45:00,
2013-01-19 03:50:00,39.9,24.2,30.20,NNE,22,0.0,0.0,53,0.00,,,0.00,LWC V2.11 B50,2013-01-19 11:50:00,
2013-01-19 03:55:00,48.5,43.6,29.80,ESE,114,0.0,0.7,85,0.00,,,0.00,WeatherCatV1.15B25,2013-01-19 11:55:00,
2013-01-19 04:00:00,39.9,24.2,30.20,NNE,22,0.0,0.0,53,0.00,,,0.00,LWC V2.11 B50,2013-01-19 12:00:00,
2013-01-19 04:05:00,48.5,43.6,29.80,ESE,114,0.0,0.7,85,0.00,,,0.00,WeatherCatV1.15B25,2013-01-19 12:05:00,
2013-01-19 04:10:00,39.0,22.9,30.21,NNE,22,0.0,0.0,52,0.00,,,0.00,LWC V2.11 B50,2013-01-19 12:10:00,
2013-01-19 04:15:00,48.5,43.6,29.80,ESE,114,0.0,0.7,85,0.00,,,0.00,WeatherCatV1.15B25,2013-01-19 12:15:00,
2013-01-19 04:20:00,39.0,22.9,30.21,NNE,22,0.0,0.0,52,0.00,,,0.00,LWC V2.11 B50,2013-01-19 12:20:00,
2013-01-19 04:25:00,48.5,43.6,29.80,ESE,114,0.0,0.7,85,0.00,,,0.00,WeatherCatV1.15B25,2013-01-19 12:25:00,
2013-01-19 04:30:00,39.0,22.9,30.21,NNE,22,0.0,0.0,52,0.00,,,0.00,LWC V2.11 B50,2013-01-19 12:30:00,
2013-01-19 04:35:00,48.5,43.6,29.80,ESE,114,0.0,0.7,85,0.00,,,0.00,WeatherCatV1.15B25,2013-01-19 12:35:00,
2013-01-19 04:40:00,39.0,22.9,30.21,NNE,22,0.0,0.0,52,0.00,,,0.00,LWC V2.11 B50,2013-01-19 12:40:00,
2013-01-19 04:45:00,48.5,43.6,29.80,ESE,114,0.0,0.7,85,0.00,,,0.00,WeatherCatV1.15B25,2013-01-19 12:45:00,
2013-01-19 04:50:00,39.0,22.9,30.21,NNE,22,0.0,0.0,52,0.00,,,0.00,LWC V2.11 B50,2013-01-19 12:50:00,
2013-01-19 04:55:00,48.5,43.6,29.80,ESE,114,0.0,0.7,85,0.00,,,0.00,WeatherCatV1.15B25,2013-01-19 12:55:00,
2013-01-19 05:00:00,39.0,22.9,30.21,NNE,22,0.0,0.0,52,0.00,,,0.00,LWC V2.11 B50,2013-01-19 13:00:00,
2013-01-19 05:05:00,48.5,43.6,29.80,ESE,114,0.0,0.7,85,0.00,,,0.00,WeatherCatV1.15B25,2013-01-19 13:05:00,
2013-01-19 05:10:00,38.9,21.4,30.22,NNE,22,0.0,0.0,49,0.00,,,0.00,LWC V2.11 B50,2013-01-19 13:10:00,
2013-01-19 05:15:00,48.5,43.6,29.80,ESE,114,0.0,0.7,85,0.00,,,0.00,WeatherCatV1.15B25,2013-01-19 13:15:00,
2013-01-19 05:20:00,38.9,21.4,30.22,NNE,22,0.0,0.0,49,0.00,,,0.00,LWC V2.11 B50,2013-01-19 13:20:00,
2013-01-19 05:25:00,48.5,43.6,29.80,ESE,114,0.0,0.7,85,0.00,,,0.00,WeatherCatV1.15B25,2013-01-19 13:25:00,
2013-01-19 05:30:00,38.9,21.4,30.22,NNE,22,0.0,0.0,49,0.00,,,0.00,LWC V2.11 B50,2013-01-19 13:30:00,
2013-01-19 05:35:00,48.5,43.6,29.80,ESE,114,0.0,0.7,85,0.00,,,0.00,WeatherCatV1.15B25,2013-01-19 13:35:00,
2013-01-19 05:40:00,38.9,21.4,30.22,NNE,22,0.0,0.0,49,0.00,,,0.00,LWC V2.11 B50,2013-01-19 13:40:00,
2013-01-19 05:45:00,48.5,43.6,29.80,ESE,114,0.0,0.7,85,0.00,,,0.00,WeatherCatV1.15B25,2013-01-19 13:45:00,
2013-01-19 05:50:00,38.9,21.4,30.22,NNE,22,0.0,0.0,49,0.00,,,0.00,LWC V2.11 B50,2013-01-19 13:50:00,
2013-01-19 05:55:00,48.5,43.6,29.80,ESE,114,0.0,0.7,85,0.00,,,0.00,WeatherCatV1.15B25,2013-01-19 13:55:00,
2013-01-19 06:00:00,38.1,21.6,30.23,NNE,22,0.0,0.0,51,0.00,,,0.00,LWC V2.11 B50,2013-01-19 14:00:00,
2013-01-19 06:05:00,48.5,43.6,29.80,ESE,114,0.0,0.7,85,0.00,,,0.00,WeatherCatV1.15B25,2013-01-19 14:05:00,
2013-01-19 06:10:00,38.1,21.6,30.23,NNE,22,0.0,0.0,51,0.00,,,0.00,LWC V2.11 B50,2013-01-19 14:10:00,
2013-01-19 06:15:00,48.5,43.6,29.80,ESE,114,0.0,0.7,85,0.00,,,0.00,WeatherCatV1.15B25,2013-01-19 14:15:00,
2013-01-19 06:20:00,38.1,21.6,30.23,NNE,22,0.0,0.0,51,0.00,,,0.00,LWC V2.11 B50,2013-01-19 14:20:00,
2013-01-19 06:25:00,48.5,43.6,29.80,ESE,114,0.0,0.7,85,0.00,,,0.00,WeatherCatV1.15B25,2013-01-19 14:25:00,
2013-01-19 06:30:00,38.1,21.6,30.23,NNE,22,0.0,0.0,51,0.00,,,0.00,LWC V2.11 B50,2013-01-19 14:30:00,
2013-01-19 06:35:00,48.5,43.6,29.80,ESE,114,0.0,0.7,85,0.00,,,0.00,WeatherCatV1.15B25,2013-01-19 14:35:00,
2013-01-19 06:40:00,38.1,21.6,30.23,NNE,22,0.0,0.0,51,0.00,,,0.00,LWC V2.11 B50,2013-01-19 14:40:00,
2013-01-19 06:45:00,48.5,43.6,29.80,ESE,114,0.0,0.7,85,0.00,,,0.00,WeatherCatV1.15B25,2013-01-19 14:45:00,
2013-01-19 06:50:00,38.1,21.6,30.23,NNE,22,0.0,0.0,51,0.00,,,0.00,LWC V2.11 B50,2013-01-19 14:50:00,
2013-01-19 06:55:00,48.5,43.6,29.80,ESE,114,0.0,0.7,85,0.00,,,0.00,WeatherCatV1.15B25,2013-01-19 14:55:00,
2013-01-19 07:00:00,37.8,19.9,30.24,NNE,22,0.0,0.0,48,0.00,,,0.00,LWC V2.11 B50,2013-01-19 15:00:00,
2013-01-19 07:05:00,48.5,43.6,29.80,ESE,114,0.0,0.7,85,0.00,,,0.00,WeatherCatV1.15B25,2013-01-19 15:05:00,
2013-01-19 07:10:00,37.8,19.9,30.24,NNE,22,0.0,0.0,48,0.00,,,0.00,LWC V2.11 B50,2013-01-19 15:10:00,
2013-01-19 07:15:00,48.5,43.6,29.80,ESE,114,0.0,0.7,85,0.00,,,0.00,WeatherCatV1.15B25,2013-01-19 15:15:00,
2013-01-19 07:20:00,37.8,19.9,30.24,NNE,22,0.0,0.0,48,0.00,,,0.00,LWC V2.11 B50,2013-01-19 15:20:00,
2013-01-19 07:25:00,48.5,43.6,29.80,ESE,114,0.0,0.7,85,0.00,,,0.00,WeatherCatV1.15B25,2013-01-19 15:25:00,
2013-01-19 07:30:00,37.8,19.9,30.24,NNE,22,0.0,0.0,48,0.00,,,0.00,LWC V2.11 B50,2013-01-19 15:30:00,
2013-01-19 07:35:00,48.5,43.6,29.80,ESE,114,0.0,0.7,85,0.00,,,0.00,WeatherCatV1.15B25,2013-01-19 15:35:00,
2013-01-19 07:40:00,37.8,19.9,30.24,NNE,22,0.0,0.0,48,0.00,,,0.00,LWC V2.11 B50,2013-01-19 15:40:00,
2013-01-19 07:45:00,48.5,43.6,29.80,ESE,114,0.0,0.7,85,0.00,,,0.00,WeatherCatV1.15B25,2013-01-19 15:45:00,
2013-01-19 07:50:00,37.8,19.9,30.24,NNE,22,0.0,0.0,48,0.00,,,0.00,LWC V2.11 B50,2013-01-19 15:50:00,
2013-01-19 07:55:00,48.5,43.6,29.80,ESE,114,0.0,0.7,85,0.00,,,0.00,WeatherCatV1.15B25,2013-01-19 15:55:00,
2013-01-19 08:00:00,38.4,20.9,30.25,NNE,22,0.0,0.0,49,0.00,,,0.00,LWC V2.11 B50,2013-01-19 16:00:00,
2013-01-19 08:05:00,48.5,43.6,29.80,ESE,114,0.0,0.7,85,0.00,,,0.00,WeatherCatV1.15B25,2013-01-19 16:05:00,
2013-01-19 08:10:00,38.4,20.9,30.25,NNE,22,0.0,0.0,49,0.00,,,0.00,LWC V2.11 B50,2013-01-19 16:10:00,
2013-01-19 08:15:00,48.5,43.6,29.80,ESE,114,0.0,0.7,85,0.00,,,0.00,WeatherCatV1.15B25,2013-01-19 16:15:00,
2013-01-19 08:20:00,38.4,20.9,30.25,NNE,22,0.0,0.0,49,0.00,,,0.00,LWC V2.11 B50,2013-01-19 16:20:00,
2013-01-19 08:25:00,48.5,43.6,29.80,ESE,114,0.0,0.7,85,0.00,,,0.00,WeatherCatV1.15B25,2013-01-19 16:25:00,
2013-01-19 08:30:00,38.4,20.9,30.25,NNE,22,0.0,0.0,49,0.00,,,0.00,LWC V2.11 B50,2013-01-19 16:30:00,
2013-01-19 08:35:00,48.5,43.6,29.80,ESE,114,0.0,0.7,85,0.00,,,0.00,WeatherCatV1.15B25,2013-01-19 16:35:00,
2013-01-19 08:40:00,38.4,20.9,30.25,NNE,22,0.0,0.0,49,0.00,,,0.00,LWC V2.11 B50,2013-01-19 16:40:00,
2013-01-19 08:45:00,48.5,43.6,29.80,ESE,114,0.0,0.7,85,0.00,,,0.00,WeatherCatV1.15B25,2013-01-19 16:45:00,
2013-01-19 08:50:00,38.4,20.9,30.25,NNE,22,0.0,0.0,49,0.00,,,0.00,LWC V2.11 B50,2013-01-19 16:50:00,
2013-01-19 08:55:00,48.5,43.6,29.80,ESE,114,0.0,0.7,85,0.00,,,0.00,WeatherCatV1.15B25,2013-01-19 16:55:00,
2013-01-19 09:00:00,38.4,20.9,30.25,NNE,22,0.0,0.0,49,0.00,,,0.00,LWC V2.11 B50,2013-01-19 17:00:00,
2013-01-19 09:05:00,48.5,43.6,29.80,ESE,114,0.0,0.7,85,0.00,,,0.00,WeatherCatV1.15B25,2013-01-19 17:05:00,
2013-01-19 09:10:00,42.5,22.7,30.26,NNE,22,0.0,0.0,45,0.00,,,0.00,LWC V2.11 B50,2013-01-19 17:10:00,
2013-01-19 09:15:00,48.5,43.6,29.80,ESE,114,0.0,0.7,85,0.00,,,0.00,WeatherCatV1.15B25,2013-01-19 17:15:00,
2013-01-19 09:20:00,42.5,22.7,30.26,NNE,22,0.0,0.0,45,0.00,,,0.00,LWC V2.11 B50,2013-01-19 17:20:00,
2013-01-19 09:25:00,48.5,43.6,29.80,ESE,114,0.0,0.7,85,0.00,,,0.00,WeatherCatV1.15B25,2013-01-19 17:25:00,
2013-01-19 09:30:00,42.5,22.7,30.26,NNE,22,0.0,0.0,45,0.00,,,0.00,LWC V2.11 B50,2013-01-19 17:30:00,
2013-01-19 09:35:00,48.5,43.6,29.80,ESE,114,0.0,0.7,85,0.00,,,0.00,WeatherCatV1.15B25,2013-01-19 17:35:00,
2013-01-19 09:40:00,42.5,22.7,30.26,NNE,22,0.0,0.0,45,0.00,,,0.00,LWC V2.11 B50,2013-01-19 17:40:00,
2013-01-19 09:45:00,48.5,43.6,29.80,ESE,114,0.0,0.7,85,0.00,,,0.00,WeatherCatV1.15B25,2013-01-19 17:45:00,
2013-01-19 09:50:00,42.5,22.7,30.26,NNE,22,0.0,0.0,45,0.00,,,0.00,LWC V2.11 B50,2013-01-19 17:50:00,
2013-01-19 09:55:00,48.5,43.6,29.80,ESE,114,0.0,0.7,85,0.00,,,0.00,WeatherCatV1.15B25,2013-01-19 17:55:00,
2013-01-19 10:00:00,42.5,22.7,30.26,NNE,22,0.0,0.0,45,0.00,,,0.00,LWC V2.11 B50,2013-01-19 18:00:00,
2013-01-19 10:05:00,48.5,43.6,29.80,ESE,114,0.0,0.7,85,0.00,,,0.00,WeatherCatV1.15B25,2013-01-19 18:05:00,
2013-01-19 10:10:00,50.4,26.4,30.27,NNE,22,0.0,0.0,39,0.00,,,0.00,LWC V2.11 B50,2013-01-19 18:10:00,
2013-01-19 10:15:00,48.5,43.6,29.80,ESE,114,0.0,0.7,85,0.00,,,0.00,WeatherCatV1.15B25,2013-01-19 18:15:00,
2013-01-19 10:20:00,50.4,26.4,30.27,NNE,22,0.0,0.0,39,0.00,,,0.00,LWC V2.11 B50,2013-01-19 18:20:00,
2013-01-19 10:25:00,48.5,43.6,29.80,ESE,114,0.0,0.7,85,0.00,,,0.00,WeatherCatV1.15B25,2013-01-19 18:25:00,
2013-01-19 10:30:00,50.4,26.4,30.27,NNE,22,0.0,0.0,39,0.00,,,0.00,LWC V2.11 B50,2013-01-19 18:30:00,
2013-01-19 10:35:00,48.5,43.6,29.80,ESE,114,0.0,0.7,85,0.00,,,0.00,WeatherCatV1.15B25,2013-01-19 18:35:00,
2013-01-19 10:40:00,50.4,26.4,30.27,NNE,22,0.0,0.0,39,0.00,,,0.00,LWC V2.11 B50,2013-01-19 18:40:00,
2013-01-19 10:45:00,48.5,43.6,29.80,ESE,114,0.0,0.7,85,0.00,,,0.00,WeatherCatV1.15B25,2013-01-19 18:45:00,
2013-01-19 10:50:00,50.4,26.4,30.27,NNE,22,0.0,0.0,39,0.00,,,0.00,LWC V2.11 B50,2013-01-19 18:50:00,
2013-01-19 10:55:00,48.5,43.6,29.80,ESE,114,0.0,0.7,85,0.00,,,0.00,WeatherCatV1.15B25,2013-01-19 18:55:00,
2013-01-19 11:00:00,50.4,26.4,30.27,NNE,22,0.0,0.0,39,0.00,,,0.00,LWC V2.11 B50,2013-01-19 19:00:00,
2013-01-19 11:05:00,48.5,43.6,29.80,ESE,114,0.0,0.7,85,0.00,,,0.00,WeatherCatV1.15B25,2013-01-19 19:05:00,
2013-01-19 11:10:00,57.6,21.1,30.25,NNE,22,0.0,0.0,24,0.00,,,0.00,LWC V2.11 B50,2013-01-19 19:10:00,
2013-01-19 11:15:00,48.5,43.6,29.80,ESE,114,0.0,0.7,85,0.00,,,0.00,WeatherCatV1.15B25,2013-01-19 19:15:00,
2013-01-19 11:20:00,57.6,21.1,30.25,NNE,22,0.0,0.0,24,0.00,,,0.00,LWC V2.11 B50,2013-01-19 19:20:00,
2013-01-19 11:25:00,48.5,43.6,29.80,ESE,114,0.0,0.7,85,0.00,,,0.00,WeatherCatV1.15B25,2013-01-19 19:25:00,
2013-01-19 11:30:00,57.6,21.1,30.25,NNE,22,0.0,0.0,24,0.00,,,0.00,LWC V2.11 B50,2013-01-19 19:30:00,
2013-01-19 11:35:00,48.5,43.6,29.80,ESE,114,0.0,0.7,85,0.00,,,0.00,WeatherCatV1.15B25,2013-01-19 19:35:00,
2013-01-19 11:40:00,57.6,21.1,30.25,NNE,22,0.0,0.0,24,0.00,,,0.00,LWC V2.11 B50,2013-01-19 19:40:00,
2013-01-19 11:45:00,48.5,43.6,29.80,ESE,114,0.0,0.7,85,0.00,,,0.00,WeatherCatV1.15B25,2013-01-19 19:45:00,
2013-01-19 11:50:00,57.6,21.1,30.25,NNE,22,0.0,0.0,24,0.00,,,0.00,LWC V2.11 B50,2013-01-19 19:50:00,
2013-01-19 11:55:00,48.5,43.6,29.80,ESE,114,0.0,0.7,85,0.00,,,0.00,WeatherCatV1.15B25,2013-01-19 19:55:00,
2013-01-19 12:00:00,57.6,21.1,30.25,NNE,22,0.0,0.0,24,0.00,,,0.00,LWC V2.11 B50,2013-01-19 20:00:00,
2013-01-19 12:05:00,48.5,43.6,29.80,ESE,114,0.0,0.7,85,0.00,,,0.00,WeatherCatV1.15B25,2013-01-19 20:05:00,
2013-01-19 12:10:00,63.9,25.4,30.23,NNE,22,0.0,0.0,23,0.00,,,0.00,LWC V2.11 B50,2013-01-19 20:10:00,
2013-01-19 12:15:00,48.5,43.6,29.80,ESE,114,0.0,0.7,85,0.00,,,0.00,WeatherCatV1.15B25,2013-01-19 20:15:00,
2013-01-19 12:20:00,63.9,25.4,30.23,NNE,22,0.0,0.0,23,0.00,,,0.00,LWC V2.11 B50,2013-01-19 20:20:00,
2013-01-19 12:25:00,48.5,43.6,29.80,ESE,114,0.0,0.7,85,0.00,,,0.00,WeatherCatV1.15B25,2013-01-19 20:25:00,
2013-01-19 12:30:00,63.9,25.4,30.23,NNE,22,0.0,0.0,23,0.00,,,0.00,LWC V2.11 B50,2013-01-19 20:30:00,
2013-01-19 12:35:00,48.5,43.6,29.80,ESE,114,0.0,0.7,85,0.00,,,0.00,WeatherCatV1.15B25,2013-01-19 20:35:00,
2013-01-19 12:40:00,63.9,25.4,30.23,NNE,22,0.0,0.0,23,0.00,,,0.00,LWC V2.11 B50,2013-01-19 20:40:00,
2013-01-19 12:45:00,48.5,43.6,29.80,ESE,114,0.0,0.7,85,0.00,,,0.00,WeatherCatV1.15B25,2013-01-19 20:45:00,
2013-01-19 12:50:00,63.9,25.4,30.23,NNE,22,0.0,0.0,23,0.00,,,0.00,LWC V2.11 B50,2013-01-19 20:50:00,
2013-01-19 12:55:00,48.5,43.6,29.80,ESE,114,0.0,0.7,85,0.00,,,0.00,WeatherCatV1.15B25,2013-01-19 20:55:00,
2013-01-19 13:00:00,63.4,28.8,30.20,SE,135,0.0,1.0,27,0.00,,,0.00,LWC V2.11 B50,2013-01-19 21:00:00,
2013-01-19 13:05:00,48.5,43.6,29.80,ESE,114,0.0,0.7,85,0.00,,,0.00,WeatherCatV1.15B25,2013-01-19 21:05:00,
2013-01-19 13:10:00,63.4,28.8,30.20,SE,135,0.0,1.0,27,0.00,,,0.00,LWC V2.11 B50,2013-01-19 21:10:00,
2013-01-19 13:15:00,48.5,43.6,29.80,ESE,114,0.0,0.7,85,0.00,,,0.00,WeatherCatV1.15B25,2013-01-19 21:15:00,
2013-01-19 13:20:00,63.4,28.8,30.20,SE,135,0.0,1.0,27,0.00,,,0.00,LWC V2.11 B50,2013-01-19 21:20:00,
2013-01-19 13:25:00,48.5,43.6,29.80,ESE,114,0.0,0.7,85,0.00,,,0.00,WeatherCatV1.15B25,2013-01-19 21:25:00,
2013-01-19 13:30:00,48.5,43.6,29.80,ESE,114,0.0,0.7,85,0.00,,,0.00,WeatherCatV1.15B25,2013-01-19 21:30:00,
2013-01-19 13:35:00,48.5,43.6,29.80,ESE,114,0.0,0.7,85,0.00,,,0.00,WeatherCatV1.15B25,2013-01-19 21:35:00,
2013-01-19 13:38:00,64.6,31.6,30.19,West,274,0.0,1.0,29,0.00,,,0.00,LWC V2.11 B50,2013-01-19 21:38:00,
2013-01-19 13:40:00,48.5,43.6,29.80,ESE,114,0.0,0.7,85,0.00,,,0.00,WeatherCatV1.15B25,2013-01-19 21:40:00,
2013-01-19 13:43:00,63.8,30.9,30.19,WSW,256,0.0,0.0,29,0.00,,,0.00,LWC V2.11 B50,2013-01-19 21:43:00,
2013-01-19 13:45:00,48.5,43.6,29.80,ESE,114,0.0,0.7,85,0.00,,,0.00,WeatherCatV1.15B25,2013-01-19 21:45:00,
2013-01-19 13:48:00,63.4,30.6,30.19,WSW,249,0.0,0.0,29,0.00,,,0.00,LWC V2.11 B50,2013-01-19 21:48:00,
2013-01-19 13:50:00,48.5,43.6,29.80,ESE,114,0.0,0.7,85,0.00,,,0.00,WeatherCatV1.15B25,2013-01-19 21:50:00,
2013-01-19 13:53:00,63.3,29.6,30.18,WSW,256,0.0,0.0,28,0.00,,,0.00,LWC V2.11 B50,2013-01-19 21:53:00,
2013-01-19 13:55:00,48.5,43.6,29.80,ESE,114,0.0,0.7,85,0.00,,,0.00,WeatherCatV1.15B25,2013-01-19 21:55:00,
2013-01-19 13:58:00,63.4,31.4,30.18,WSW,245,0.0,0.0,30,0.00,,,0.00,LWC V2.11 B50,2013-01-19 21:58:00,
2013-01-19 14:00:00,48.5,43.6,29.80,ESE,114,0.0,0.7,85,0.00,,,0.00,WeatherCatV1.15B25,2013-01-19 22:00:00,
2013-01-19 14:03:00,63.6,31.6,30.18,WNW,284,0.0,0.0,30,0.00,,,0.00,LWC V2.11 B50,2013-01-19 22:03:00,
2013-01-19 14:05:00,48.5,43.6,29.80,ESE,114,0.0,0.7,85,0.00,,,0.00,WeatherCatV1.15B25,2013-01-19 22:05:00,
2013-01-19 14:08:00,63.6,30.8,30.18,SW,222,0.0,0.0,29,0.00,,,0.00,LWC V2.11 B50,2013-01-19 22:08:00,
2013-01-19 14:10:00,48.5,43.6,29.80,ESE,114,0.0,0.7,85,0.00,,,0.00,WeatherCatV1.15B25,2013-01-19 22:10:00,
2013-01-19 14:13:00,63.4,31.4,30.18,WSW,245,0.0,0.0,30,0.00,,,0.00,LWC V2.11 B50,2013-01-19 22:13:00,
2013-01-19 14:15:00,48.5,43.6,29.80,ESE,114,0.0,0.7,85,0.00,,,0.00,WeatherCatV1.15B25,2013-01-19 22:15:00,
2013-01-19 14:18:00,63.4,31.4,30.18,ENE,61,0.0,0.0,30,0.00,,,0.00,LWC V2.11 B50,2013-01-19 22:18:00,
2013-01-19 14:20:00,48.5,43.6,29.80,ESE,114,0.0,0.7,85,0.00,,,0.00,WeatherCatV1.15B25,2013-01-19 22:20:00,
2013-01-19 14:23:00,63.3,31.3,30.18,West,262,0.0,0.0,30,0.00,,,0.00,LWC V2.11 B50,2013-01-19 22:23:00,
2013-01-19 14:25:00,48.5,43.6,29.80,ESE,114,0.0,0.7,85,0.00,,,0.00,WeatherCatV1.15B25,2013-01-19 22:25:00,
2013-01-19 14:28:00,63.1,32.0,30.18,West,271,0.0,0.0,31,0.00,,,0.00,LWC V2.11 B50,2013-01-19 22:28:00,
2013-01-19 14:30:00,48.5,43.6,29.80,ESE,114,0.0,0.7,85,0.00,,,0.00,WeatherCatV1.15B25,2013-01-19 22:30:00,
2013-01-19 14:33:00,62.8,30.9,30.18,West,275,0.0,0.0,30,0.00,,,0.00,LWC V2.11 B50,2013-01-19 22:33:00,
2013-01-19 14:35:00,48.5,43.6,29.80,ESE,114,0.0,0.7,85,0.00,,,0.00,WeatherCatV1.15B25,2013-01-19 22:35:00,
2013-01-19 14:38:00,62.9,32.6,30.18,WNW,288,0.0,0.0,32,0.00,,,0.00,LWC V2.11 B50,2013-01-19 22:38:00,
2013-01-19 14:40:00,48.5,43.6,29.80,ESE,114,0.0,0.7,85,0.00,,,0.00,WeatherCatV1.15B25,2013-01-19 22:40:00,
2013-01-19 14:43:00,62.9,33.4,30.17,WNW,284,0.0,1.0,33,0.00,,,0.00,LWC V2.11 B50,2013-01-19 22:43:00,
2013-01-19 14:45:00,48.4,43.6,29.80,ESE,114,0.0,0.7,85,0.00,,,0.00,WeatherCatV1.15B25,2013-01-19 22:45:00,
2013-01-19 14:48:00,62.6,33.8,30.17,West,280,0.0,0.0,34,0.00,,,0.00,LWC V2.11 B50,2013-01-19 22:48:00,
2013-01-19 14:50:00,48.4,43.6,29.80,ESE,114,0.0,0.7,85,0.00,,,0.00,WeatherCatV1.15B25,2013-01-19 22:50:00,
2013-01-19 14:53:00,62.4,33.7,30.17,NW,320,0.0,0.0,34,0.00,,,0.00,LWC V2.11 B50,2013-01-19 22:53:00,
2013-01-19 14:55:00,48.4,43.6,29.80,ESE,114,0.0,0.7,85,0.00,,,0.00,WeatherCatV1.15B25,2013-01-19 22:55:00,
2013-01-19 14:58:00,62.5,33.7,30.17,NW,320,0.0,0.0,34,0.00,,,0.00,LWC V2.11 B50,2013-01-19 22:58:00,
2013-01-19 15:00:00,48.4,43.6,29.80,ESE,114,0.0,0.7,85,0.00,,,0.00,WeatherCatV1.15B25,2013-01-19 23:00:00,
2013-01-19 15:03:00,62.3,32.1,30.17,NW,320,0.0,0.0,32,0.00,,,0.00,LWC V2.11 B50,2013-01-19 23:03:00,
2013-01-19 15:05:00,48.4,43.6,29.80,ESE,114,0.0,0.7,85,0.00,,,0.00,WeatherCatV1.15B25,2013-01-19 23:05:00,
2013-01-19 15:08:00,62.1,31.9,30.17,WSW,248,0.0,0.0,32,0.00,,,0.00,LWC V2.11 B50,2013-01-19 23:08:00,
2013-01-19 15:10:00,48.4,43.6,29.80,ESE,114,0.0,0.7,85,0.00,,,0.00,WeatherCatV1.15B25,2013-01-19 23:10:00,
2013-01-19 15:13:00,62.1,30.3,30.17,West,262,0.0,0.0,30,0.00,,,0.00,LWC V2.11 B50,2013-01-19 23:13:00,
2013-01-19 15:15:00,48.4,43.6,29.80,ESE,114,0.0,0.7,85,0.00,,,0.00,WeatherCatV1.15B25,2013-01-19 23:15:00,
2013-01-19 15:18:00,62.1,30.3,30.17,West,270,0.0,0.0,30,0.00,,,0.00,LWC V2.11 B50,2013-01-19 23:18:00,
2013-01-19 15:20:00,48.4,43.6,29.80,ESE,114,0.0,0.7,85,0.00,,,0.00,WeatherCatV1.15B25,2013-01-19 23:20:00,
2013-01-19 15:23:00,62.0,31.0,30.17,West,270,0.0,0.0,31,0.00,,,0.00,LWC V2.11 B50,2013-01-19 23:23:00,
2013-01-19 15:25:00,48.4,43.6,29.80,ESE,114,0.0,0.7,85,0.00,,,0.00,WeatherCatV1.15B25,2013-01-19 23:25:00,
2013-01-19 15:28:00,61.8,31.6,30.17,West,273,0.0,0.0,32,0.00,,,0.00,LWC V2.11 B50,2013-01-19 23:28:00,
2013-01-19 15:30:00,48.4,43.6,29.80,ESE,114,0.0,0.7,85,0.00,,,0.00,WeatherCatV1.15B25,2013-01-19 23:30:00,
2013-01-19 15:33:00,61.4,31.3,30.17,NW,314,0.0,0.0,32,0.00,,,0.00,LWC V2.11 B50,2013-01-19 23:33:00,
2013-01-19 15:35:00,48.4,43.6,29.80,ESE,114,0.0,0.7,85,0.00,,,0.00,WeatherCatV1.15B25,2013-01-19 23:35:00,
2013-01-19 15:38:00,61.4,32.8,30.17,NW,314,0.0,0.0,34,0.00,,,0.00,LWC V2.11 B50,2013-01-19 23:38:00,
2013-01-19 15:40:00,48.4,43.6,29.80,ESE,114,0.0,0.7,85,0.00,,,0.00,WeatherCatV1.15B25,2013-01-19 23:40:00,
2013-01-19 15:43:00,61.1,32.5,30.17,NNW,342,0.0,0.0,34,0.00,,,0.00,LWC V2.11 B50,2013-01-19 23:43:00,
2013-01-19 15:45:00,48.4,43.6,29.80,ESE,114,0.0,0.7,85,0.00,,,0.00,WeatherCatV1.15B25,2013-01-19 23:45:00,
2013-01-19 15:49:00,60.7,32.9,30.17,NNW,346,0.0,0.0,35,0.00,,,0.00,LWC V2.11 B50,2013-01-19 23:49:00,
2013-01-19 15:50:00,48.4,43.6,29.80,ESE,114,0.0,0.7,85,0.00,,,0.00,WeatherCatV1.15B25,2013-01-19 23:50:00,
2013-01-19 15:54:00,60.5,33.4,30.18,NW,322,0.0,0.0,36,0.00,,,0.00,LWC V2.11 B50,2013-01-19 23:54:00,
2013-01-19 15:55:00,48.4,43.6,29.80,ESE,114,0.0,0.7,85,0.00,,,0.00,WeatherCatV1.15B25,2013-01-19 23:55:00,
2013-01-19 15:59:00,60.4,33.3,30.18,WNW,302,0.0,0.0,36,0.00,,,0.00,LWC V2.11 B50,2013-01-19 23:59:00,
2013-01-19 16:00:00,48.4,43.6,29.80,ESE,114,0.0,0.7,85,0.00,,,0.00,WeatherCatV1.15B25,2013-01-20 00:00:00,
2013-01-19 16:04:00,60.3,33.9,30.18,WNW,300,0.0,0.0,37,0.00,,,0.00,LWC V2.11 B50,2013-01-20 00:04:00,
2013-01-19 16:05:00,48.4,43.6,29.80,ESE,114,0.0,0.7,85,0.00,,,0.00,WeatherCatV1.15B25,2013-01-20 00:05:00,
2013-01-19 16:09:00,60.0,33.0,30.18,NW,316,0.0,0.0,36,0.00,,,0.00,LWC V2.11 B50,2013-01-20 00:09:00,
2013-01-19 16:10:00,48.4,43.6,29.80,ESE,114,0.0,0.7,85,0.00,,,0.00,WeatherCatV1.15B25,2013-01-20 00:10:00,
2013-01-19 16:14:00,59.6,34.0,30.18,NW,316,0.0,0.0,38,0.00,,,0.00,LWC V2.11 B50,2013-01-20 00:14:00,
2013-01-19 16:15:00,48.4,43.6,29.80,ESE,114,0.0,0.7,85,0.00,,,0.00,WeatherCatV1.15B25,2013-01-20 00:15:00,
2013-01-19 16:19:00,59.2,34.3,30.18,NW,316,0.0,0.0,39,0.00,,,0.00,LWC V2.11 B50,2013-01-20 00:19:00,
2013-01-19 16:20:00,48.4,43.6,29.80,ESE,114,0.0,0.7,85,0.00,,,0.00,WeatherCatV1.15B25,2013-01-20 00:20:00,
2013-01-19 16:24:00,59.1,35.4,30.18,NW,316,0.0,0.0,41,0.00,,,0.00,LWC V2.11 B50,2013-01-20 00:24:00,
2013-01-19 16:25:00,48.4,43.6,29.80,ESE,114,0.0,0.7,85,0.00,,,0.00,WeatherCatV1.15B25,2013-01-20 00:25:00,
2013-01-19 16:29:00,58.7,36.8,30.18,NW,316,0.0,0.0,44,0.00,,,0.00,LWC V2.11 B50,2013-01-20 00:29:00,
2013-01-19 16:30:00,48.4,43.6,29.80,ESE,114,0.0,0.7,85,0.00,,,0.00,WeatherCatV1.15B25,2013-01-20 00:30:00,
2013-01-19 16:34:00,58.3,36.5,30.18,NW,316,0.0,0.0,44,0.00,,,0.00,LWC V2.11 B50,2013-01-20 00:34:00,
2013-01-19 16:35:00,48.4,43.6,29.80,ESE,114,0.0,0.7,85,0.00,,,0.00,WeatherCatV1.15B25,2013-01-20 00:35:00,
2013-01-19 16:39:00,58.0,36.2,30.18,NW,316,0.0,0.0,44,0.00,,,0.00,LWC V2.11 B50,2013-01-20 00:39:00,
2013-01-19 16:40:00,48.4,43.6,29.80,ESE,114,0.0,0.7,85,0.00,,,0.00,WeatherCatV1.15B25,2013-01-20 00:40:00,
2013-01-19 16:44:00,57.5,36.9,30.18,NW,316,0.0,0.0,46,0.00,,,0.00,LWC V2.11 B50,2013-01-20 00:44:00,
2013-01-19 16:45:00,48.4,43.6,29.80,ESE,114,0.0,0.7,85,0.00,,,0.00,WeatherCatV1.15B25,2013-01-20 00:45:00,
2013-01-19 16:49:00,56.9,36.3,30.18,NW,316,0.0,0.0,46,0.00,,,0.00,LWC V2.11 B50,2013-01-20 00:49:00,
2013-01-19 16:50:00,48.4,43.6,29.80,ESE,114,0.0,0.7,85,0.00,,,0.00,WeatherCatV1.15B25,2013-01-20 00:50:00,
2013-01-19 16:54:00,56.5,36.5,30.18,NW,316,0.0,0.0,47,0.00,,,0.00,LWC V2.11 B50,2013-01-20 00:54:00,
2013-01-19 16:55:00,48.4,43.6,29.80,ESE,114,0.0,0.7,85,0.00,,,0.00,WeatherCatV1.15B25,2013-01-20 00:55:00,
2013-01-19 16:59:00,56.1,36.1,30.18,NW,316,0.0,0.0,47,0.00,,,0.00,LWC V2.11 B50,2013-01-20 00:59:00,
2013-01-19 17:00:00,48.4,43.6,29.80,ESE,114,0.0,0.7,85,0.00,,,0.00,WeatherCatV1.15B25,2013-01-20 01:00:00,
2013-01-19 17:04:00,55.7,36.3,30.18,NW,315,0.0,0.0,48,0.00,,,0.00,LWC V2.11 B50,2013-01-20 01:04:00,
2013-01-19 17:05:00,48.4,43.6,29.80,ESE,114,0.0,0.7,85,0.00,,,0.00,WeatherCatV1.15B25,2013-01-20 01:05:00,
2013-01-19 17:09:00,55.3,36.5,30.18,NW,316,0.0,0.0,49,0.00,,,0.00,LWC V2.11 B50,2013-01-20 01:09:00,
2013-01-19 17:10:00,48.4,43.6,29.80,ESE,114,0.0,0.7,85,0.00,,,0.00,WeatherCatV1.15B25,2013-01-20 01:10:00,
2013-01-19 17:14:00,54.9,36.1,30.17,NW,315,0.0,0.0,49,0.00,,,0.00,LWC V2.11 B50,2013-01-20 01:14:00,
2013-01-19 17:15:00,48.4,43.6,29.80,ESE,114,0.0,0.7,85,0.00,,,0.00,WeatherCatV1.15B25,2013-01-20 01:15:00,
2013-01-19 17:19:00,54.2,36.0,30.17,NW,314,0.0,0.0,50,0.00,,,0.00,LWC V2.11 B50,2013-01-20 01:19:00,
2013-01-19 17:20:00,48.4,43.6,29.80,ESE,114,0.0,0.7,85,0.00,,,0.00,WeatherCatV1.15B25,2013-01-20 01:20:00,
2013-01-19 17:24:00,53.5,35.3,30.17,NW,315,0.0,0.0,50,0.00,,,0.00,LWC V2.11 B50,2013-01-20 01:24:00,
2013-01-19 17:25:00,48.4,43.6,29.80,ESE,114,0.0,0.7,85,0.00,,,0.00,WeatherCatV1.15B25,2013-01-20 01:25:00,
2013-01-19 17:29:00,52.9,35.3,30.17,NW,315,0.0,0.0,51,0.00,,,0.00,LWC V2.11 B50,2013-01-20 01:29:00,
2013-01-19 17:30:00,48.4,43.6,29.80,ESE,114,0.0,0.7,85,0.00,,,0.00,WeatherCatV1.15B25,2013-01-20 01:30:00,
2013-01-19 17:34:00,52.3,34.7,30.17,NW,315,0.0,0.0,51,0.00,,,0.00,LWC V2.11 B50,2013-01-20 01:34:00,
2013-01-19 17:35:00,48.4,43.6,29.80,ESE,114,0.0,0.7,85,0.00,,,0.00,WeatherCatV1.15B25,2013-01-20 01:35:00,
2013-01-19 17:39:00,51.7,34.6,30.17,NW,315,0.0,0.0,52,0.00,,,0.00,LWC V2.11 B50,2013-01-20 01:39:00,
2013-01-19 17:40:00,48.4,43.6,29.80,ESE,114,0.0,0.7,85,0.00,,,0.00,WeatherCatV1.15B25,2013-01-20 01:40:00,
2013-01-19 17:44:00,51.2,34.7,30.17,NW,316,0.0,0.0,53,0.00,,,0.00,LWC V2.11 B50,2013-01-20 01:44:00,
2013-01-19 17:45:00,48.4,43.6,29.80,ESE,114,0.0,0.7,85,0.00,,,0.00,WeatherCatV1.15B25,2013-01-20 01:45:00,
2013-01-19 17:49:00,50.6,35.0,30.17,NW,315,0.0,0.0,55,0.00,,,0.00,LWC V2.11 B50,2013-01-20 01:49:00,
2013-01-19 17:50:00,48.4,43.6,29.80,ESE,114,0.0,0.7,85,0.00,,,0.00,WeatherCatV1.15B25,2013-01-20 01:50:00,
2013-01-19 17:54:00,50.1,35.0,30.18,NW,315,0.0,0.0,56,0.00,,,0.00,LWC V2.11 B50,2013-01-20 01:54:00,
2013-01-19 17:55:00,48.4,43.6,29.80,ESE,114,0.0,0.7,85,0.00,,,0.00,WeatherCatV1.15B25,2013-01-20 01:55:00,
2013-01-19 17:59:00,49.6,35.0,30.18,NW,315,0.0,0.0,57,0.00,,,0.00,LWC V2.11 B50,2013-01-20 01:59:00,
2013-01-19 18:00:00,48.4,43.6,29.80,ESE,114,0.0,0.7,85,0.00,,,0.00,WeatherCatV1.15B25,2013-01-20 02:00:00,
2013-01-19 18:04:00,49.2,34.6,30.18,NW,316,0.0,0.0,57,0.00,,,0.00,LWC V2.11 B50,2013-01-20 02:04:00,
2013-01-19 18:05:00,48.4,43.6,29.80,ESE,114,0.0,0.7,85,0.00,,,0.00,WeatherCatV1.15B25,2013-01-20 02:05:00,
2013-01-19 18:09:00,48.8,34.2,30.18,NW,316,0.0,0.0,57,0.00,,,0.00,LWC V2.11 B50,2013-01-20 02:09:00,
2013-01-19 18:10:00,48.4,43.6,29.80,ESE,114,0.0,0.7,85,0.00,,,0.00,WeatherCatV1.15B25,2013-01-20 02:10:00,
2013-01-19 18:14:00,48.5,34.0,30.18,NW,318,0.0,0.0,57,0.00,,,0.00,LWC V2.11 B50,2013-01-20 02:14:00,
2013-01-19 18:15:00,48.4,43.6,29.80,ESE,114,0.0,0.7,85,0.00,,,0.00,WeatherCatV1.15B25,2013-01-20 02:15:00,
2013-01-19 18:19:00,48.2,34.6,30.18,NW,317,0.0,0.0,59,0.00,,,0.00,LWC V2.11 B50,2013-01-20 02:19:00,
2013-01-19 18:20:00,48.4,43.6,29.80,ESE,114,0.0,0.7,85,0.00,,,0.00,WeatherCatV1.15B25,2013-01-20 02:20:00,
2013-01-19 18:24:00,47.7,34.9,30.18,NW,320,0.0,0.0,61,0.00,,,0.00,LWC V2.11 B50,2013-01-20 02:24:00,
2013-01-19 18:25:00,48.4,43.6,29.80,ESE,114,0.0,0.7,85,0.00,,,0.00,WeatherCatV1.15B25,2013-01-20 02:25:00,
2013-01-19 18:29:00,47.1,34.4,30.18,NW,320,0.0,0.0,61,0.00,,,0.00,LWC V2.11 B50,2013-01-20 02:29:00,
2013-01-19 18:30:00,48.4,43.6,29.80,ESE,114,0.0,0.7,85,0.00,,,0.00,WeatherCatV1.15B25,2013-01-20 02:30:00,
2013-01-19 18:34:00,46.7,34.4,30.18,NW,326,0.0,0.0,62,0.00,,,0.00,LWC V2.11 B50,2013-01-20 02:34:00,
2013-01-19 18:35:00,48.4,43.6,29.80,ESE,114,0.0,0.7,85,0.00,,,0.00,WeatherCatV1.15B25,2013-01-20 02:35:00,
2013-01-19 18:39:00,46.3,34.0,30.18,NNW,327,0.0,0.0,62,0.00,,,0.00,LWC V2.11 B50,2013-01-20 02:39:00,
2013-01-19 18:40:00,46.3,34.0,30.18,NW,326,0.0,0.0,62,0.00,,,0.00,LWC V2.11 B50,2013-01-20 02:40:00,
2013-01-19 18:44:00,46.1,34.2,30.18,NNW,328,0.0,0.0,63,0.00,,,0.00,LWC V2.11 B50,2013-01-20 02:44:00,
2013-01-19 18:45:00,48.4,43.6,29.80,ESE,114,0.0,0.7,85,0.00,,,0.00,WeatherCatV1.15B25,2013-01-20 02:45:00,
2013-01-19 18:50:00,49.6,35.0,30.18,West,270,0.0,0.0,57,0.00,,,0.00,LWC V2.11 B50,2013-01-20 02:50:00,
2013-01-19 18:55:00,48.4,43.6,29.80,ESE,114,0.0,0.7,85,0.00,,,0.00,WeatherCatV1.15B25,2013-01-20 02:55:00,
2013-01-19 19:00:00,45.5,33.6,30.18,West,270,0.0,0.0,63,0.00,,,0.00,LWC V2.11 B50,2013-01-20 03:00:00,
2013-01-19 19:05:00,48.4,43.6,29.80,ESE,114,0.0,0.7,85,0.00,,,0.00,WeatherCatV1.15B25,2013-01-20 03:05:00,
2013-01-19 19:10:00,45.5,33.6,30.18,West,270,0.0,0.0,63,0.00,,,0.00,LWC V2.11 B50,2013-01-20 03:10:00,
2013-01-19 19:15:00,48.4,43.6,29.80,ESE,114,0.0,0.7,85,0.00,,,0.00,WeatherCatV1.15B25,2013-01-20 03:15:00,
2013-01-19 19:20:00,45.5,33.6,30.18,West,270,0.0,0.0,63,0.00,,,0.00,LWC V2.11 B50,2013-01-20 03:20:00,
2013-01-19 19:25:00,48.4,43.6,29.80,ESE,114,0.0,0.7,85,0.00,,,0.00,WeatherCatV1.15B25,2013-01-20 03:25:00,
2013-01-19 19:30:00,45.5,33.6,30.18,West,270,0.0,0.0,63,0.00,,,0.00,LWC V2.11 B50,2013-01-20 03:30:00,
2013-01-19 19:35:00,48.4,43.6,29.80,ESE,114,0.0,0.7,85,0.00,,,0.00,WeatherCatV1.15B25,2013-01-20 03:35:00,
2013-01-19 19:40:00,45.5,33.6,30.18,West,270,0.0,0.0,63,0.00,,,0.00,LWC V2.11 B50,2013-01-20 03:40:00,
2013-01-19 19:45:00,48.4,43.6,29.80,ESE,114,0.0,0.7,85,0.00,,,0.00,WeatherCatV1.15B25,2013-01-20 03:45:00,
2013-01-19 19:50:00,45.5,33.6,30.18,West,270,0.0,0.0,63,0.00,,,0.00,LWC V2.11 B50,2013-01-20 03:50:00,
2013-01-19 19:55:00,48.4,43.6,29.80,ESE,114,0.0,0.7,85,0.00,,,0.00,WeatherCatV1.15B25,2013-01-20 03:55:00,
2013-01-19 20:00:00,45.5,33.6,30.18,West,270,0.0,0.0,63,0.00,,,0.00,LWC V2.11 B50,2013-01-20 04:00:00,
2013-01-19 20:05:00,48.4,43.6,29.80,ESE,114,0.0,0.7,85,0.00,,,0.00,WeatherCatV1.15B25,2013-01-20 04:05:00,
2013-01-19 20:10:00,44.5,33.9,30.20,West,270,0.0,0.0,66,0.00,,,0.00,LWC V2.11 B50,2013-01-20 04:10:00,
2013-01-19 20:15:00,48.4,43.6,29.80,ESE,114,0.0,0.7,85,0.00,,,0.00,WeatherCatV1.15B25,2013-01-20 04:15:00,
2013-01-19 20:20:00,44.5,33.9,30.20,West,270,0.0,0.0,66,0.00,,,0.00,LWC V2.11 B50,2013-01-20 04:20:00,
2013-01-19 20:25:00,48.4,43.6,29.80,ESE,114,0.0,0.7,85,0.00,,,0.00,WeatherCatV1.15B25,2013-01-20 04:25:00,
2013-01-19 20:30:00,44.5,33.9,30.20,West,270,0.0,0.0,66,0.00,,,0.00,LWC V2.11 B50,2013-01-20 04:30:00,
2013-01-19 20:35:00,48.4,43.6,29.80,ESE,114,0.0,0.7,85,0.00,,,0.00,WeatherCatV1.15B25,2013-01-20 04:35:00,
2013-01-19 20:40:00,44.5,33.9,30.20,West,270,0.0,0.0,66,0.00,,,0.00,LWC V2.11 B50,2013-01-20 04:40:00,
2013-01-19 20:45:00,48.4,43.6,29.80,ESE,114,0.0,0.7,85,0.00,,,0.00,WeatherCatV1.15B25,2013-01-20 04:45:00,
2013-01-19 20:50:00,44.5,33.9,30.20,West,270,0.0,0.0,66,0.00,,,0.00,LWC V2.11 B50,2013-01-20 04:50:00,
2013-01-19 20:55:00,48.4,43.6,29.80,ESE,114,0.0,0.7,85,0.00,,,0.00,WeatherCatV1.15B25,2013-01-20 04:55:00,
2013-01-19 21:00:00,44.5,33.9,30.20,West,270,0.0,0.0,66,0.00,,,0.00,LWC V2.11 B50,2013-01-20 05:00:00,
2013-01-19 21:05:00,48.4,43.6,29.80,ESE,114,0.0,0.7,85,0.00,,,0.00,WeatherCatV1.15B25,2013-01-20 05:05:00,
2013-01-19 21:10:00,42.8,33.3,30.21,West,270,0.0,0.0,69,0.00,,,0.00,LWC V2.11 B50,2013-01-20 05:10:00,
2013-01-19 21:15:00,48.4,43.6,29.80,ESE,114,0.0,0.7,85,0.00,,,0.00,WeatherCatV1.15B25,2013-01-20 05:15:00,
2013-01-19 21:20:00,42.8,33.3,30.21,West,270,0.0,0.0,69,0.00,,,0.00,LWC V2.11 B50,2013-01-20 05:20:00,
2013-01-19 21:25:00,48.4,43.6,29.80,ESE,114,0.0,0.7,85,0.00,,,0.00,WeatherCatV1.15B25,2013-01-20 05:25:00,
2013-01-19 21:30:00,42.8,33.3,30.21,West,270,0.0,0.0,69,0.00,,,0.00,LWC V2.11 B50,2013-01-20 05:30:00,
2013-01-19 21:35:00,48.4,43.6,29.80,ESE,114,0.0,0.7,85,0.00,,,0.00,WeatherCatV1.15B25,2013-01-20 05:35:00,
2013-01-19 21:40:00,42.8,33.3,30.21,West,270,0.0,0.0,69,0.00,,,0.00,LWC V2.11 B50,2013-01-20 05:40:00,
2013-01-19 21:45:00,48.4,43.6,29.80,ESE,114,0.0,0.7,85,0.00,,,0.00,WeatherCatV1.15B25,2013-01-20 05:45:00,
2013-01-19 21:50:00,42.8,33.3,30.21,West,270,0.0,0.0,69,0.00,,,0.00,LWC V2.11 B50,2013-01-20 05:50:00,
2013-01-19 21:55:00,48.4,43.6,29.80,ESE,114,0.0,0.7,85,0.00,,,0.00,WeatherCatV1.15B25,2013-01-20 05:55:00,
2013-01-19 22:00:00,42.8,33.3,30.21,West,270,0.0,0.0,69,0.00,,,0.00,LWC V2.11 B50,2013-01-20 06:00:00,
2013-01-19 22:05:00,48.4,43.6,29.80,ESE,114,0.0,0.7,85,0.00,,,0.00,WeatherCatV1.15B25,2013-01-20 06:05:00,
2013-01-19 22:10:00,42.0,33.3,30.22,West,270,0.0,0.0,71,0.00,,,0.00,LWC V2.11 B50,2013-01-20 06:10:00,
2013-01-19 22:15:00,48.4,43.6,29.80,ESE,114,0.0,0.7,85,0.00,,,0.00,WeatherCatV1.15B25,2013-01-20 06:15:00,
2013-01-19 22:20:00,42.0,33.3,30.22,West,270,0.0,0.0,71,0.00,,,0.00,LWC V2.11 B50,2013-01-20 06:20:00,
2013-01-19 22:25:00,48.4,43.6,29.80,ESE,114,0.0,0.7,85,0.00,,,0.00,WeatherCatV1.15B25,2013-01-20 06:25:00,
2013-01-19 22:30:00,42.0,33.3,30.22,West,270,0.0,0.0,71,0.00,,,0.00,LWC V2.11 B50,2013-01-20 06:30:00,
2013-01-19 22:35:00,48.4,43.6,29.80,ESE,114,0.0,0.7,85,0.00,,,0.00,WeatherCatV1.15B25,2013-01-20 06:35:00,
2013-01-19 22:40:00,42.0,33.3,30.22,West,270,0.0,0.0,71,0.00,,,0.00,LWC V2.11 B50,2013-01-20 06:40:00,
2013-01-19 22:45:00,48.4,43.6,29.80,ESE,114,0.0,0.7,85,0.00,,,0.00,WeatherCatV1.15B25,2013-01-20 06:45:00,
2013-01-19 22:50:00,42.0,33.3,30.22,West,270,0.0,0.0,71,0.00,,,0.00,LWC V2.11 B50,2013-01-20 06:50:00,
2013-01-19 22:55:00,48.4,43.6,29.80,ESE,114,0.0,0.7,85,0.00,,,0.00,WeatherCatV1.15B25,2013-01-20 06:55:00,
2013-01-19 23:00:00,42.0,33.3,30.22,West,270,0.0,0.0,71,0.00,,,0.00,LWC V2.11 B50,2013-01-20 07:00:00,
2013-01-19 23:05:00,48.4,43.6,29.80,ESE,114,0.0,0.7,85,0.00,,,0.00,WeatherCatV1.15B25,2013-01-20 07:05:00,
2013-01-19 23:10:00,41.3,32.6,30.24,West,270,0.0,0.0,71,0.00,,,0.00,LWC V2.11 B50,2013-01-20 07:10:00,
2013-01-19 23:15:00,48.4,43.6,29.80,ESE,114,0.0,0.7,85,0.00,,,0.00,WeatherCatV1.15B25,2013-01-20 07:15:00,
2013-01-19 23:20:00,41.3,32.6,30.24,West,270,0.0,0.0,71,0.00,,,0.00,LWC V2.11 B50,2013-01-20 07:20:00,
2013-01-19 23:25:00,48.4,43.6,29.80,ESE,114,0.0,0.7,85,0.00,,,0.00,WeatherCatV1.15B25,2013-01-20 07:25:00,
2013-01-19 23:30:00,41.3,32.6,30.24,West,270,0.0,0.0,71,0.00,,,0.00,LWC V2.11 B50,2013-01-20 07:30:00,
2013-01-19 23:35:00,48.4,43.6,29.80,ESE,114,0.0,0.7,85,0.00,,,0.00,WeatherCatV1.15B25,2013-01-20 07:35:00,
2013-01-19 23:40:00,41.3,32.6,30.24,West,270,0.0,0.0,71,0.00,,,0.00,LWC V2.11 B50,2013-01-20 07:40:00,
2013-01-19 23:45:00,48.4,43.6,29.80,ESE,114,0.0,0.7,85,0.00,,,0.00,WeatherCatV1.15B25,2013-01-20 07:45:00,
2013-01-19 23:50:00,41.3,32.6,30.24,West,270,0.0,0.0,71,0.00,,,0.00,LWC V2.11 B50,2013-01-20 07:50:00,
2013-01-19 23:55:00,48.4,43.6,29.80,ESE,114,0.0,0.7,85,0.00,,,0.00,WeatherCatV1.15B25,2013-01-20 07:55:00,